Volver al catálogo

STARLINK-11507

ActivoComunicacionesVLEO
NORAD 62519·PAYLOAD·🇺🇸 United States

Lanzado Jan 8, 2025 desde Cape Canaveral Space Force Station

Loading…

Próximos Pases (próximas 24 horas)

TLE

ActualizadoSource: CelesTrak SupGP

Época: Sep 15, 2026, 02:32 UTC

1 62519C 25004J   26258.10604167  .00052028  00000+0  40465-3 0  2588
2 62519  43.0008   9.1060 0001314 281.8718 216.6112 15.70780964    17

Sigue STARLINK-11507 en tiempo real con AllMySat

Download on the App Store